Temp
6 6 6 6 7 7 7 8 6 6 8 6 7 8 8 7 11 13 13 14 15 15 15 14 14 13 13 14 12 10 12 11 12 14 15 15 14 16 16 13 15 14 12 12
6 6 6 6 6 6 8 6 5 6 7 8 8 7 8 9 11 13 13 14 15 15 15 14 15 15 14 15 14 13 14 13 12 14 14 15 16 16 17 16 14 13 12 12
6 6 6 6 6 7 7 7 6 6 7 8 10 8 8 11 12 13 14 15 16 16 15 16 15 14 14 14 15 13 13 13 12 11 13 13 14 15 16 14 12 14 13 14
6 6 7 6 6 7 7 9 8 8 8 10 9 9 9 13 12 14 14 15 16 16 15 15 15 15 15 15 16 15 14 11 8 14 15 15 15 15 15 14 16 13 14 15
7 7 7 7 6 6 7 9 9 10 9 9 9 8 11 13 13 12 14 15 16 15 14 15 15 16 15 14 17 16 15 11 13 14 15 15 13 14 15 15 16 16 15 15
8 8 7 7 6 7 8 9 11 11 8 8 11 11 12 12 13 13 13 14 14 13 13 14 15 15 15 15 14 14 14 12 11 12 13 13 12 13 14 15 14 16 14 15
8 8 8 7 7 8 10 10 11 11 8 9 11 12 12 12 11 12 13 12 14 12 13 13 17 15 15 15 14 14 14 14 12 10 12 11 13 14 14 14 15 15 15 15
9 9 8 8 8 7 8 9 9 11 9 9 11 12 12 12 12 11 12 11 11 11 12 14 14 14 14 14 14 14 14 13 13 10 11 15 14 14 14 14 14 16 14 13
9 10 9 8 7 7 7 8 8 9 10 8 11 12 12 12 12 12 12 11 12 11 12 14 13 12 14 14 14 15 14 14 12 10 12 14 14 14 15 15 13 14 15 13
8 9 9 8 7 8 7 8 8 8 9 8 8 10 10 11 12 11 12 12 13 12 12 12 11 12 13 12 14 14 13 13 12 12 11 13 13 13 14 13 13 13 14 13
8 9 9 9 9 8 8 7 7 7 8 7 7 7 9 10 10 12 11 11 11 12 12 12 12 12 12 12 14 14 13 12 11 12 12 10 13 13 13 12 13 13 13 13
7 8 8 9 9 9 9 8 8 7 6 5 5 5 5 5 5 6 10 11 11 10 10 11 12 11 11 12 11 13 10 13 12 13 12 13 13 13 13 13 12 13 11 12
7 8 9 9 10 10 9 8 8 8 6 6 6 7 5 5 5 5 7 9 9 10 8 10 10 11 11 10 11 14 12 12 11 12 13 12 12 12 13 13 13 12 11 11
7 8 9 9 10 10 9 8 8 7 8 7 6 6 6 5 5 5 5 6 8 8 8 10 10 11 11 10 10 10 11 11 11 11 12 13 12 11 10 11 11 11 10 10
7 8 9 9 9 9 9 9 8 7 7 7 6 6 6 5 6 6 6 6 7 8 8 9 9 9 9 9 8 8 10 10 10 10 12 11 13 10 11 9 9 9 8 8
7 7 8 8 8 9 8 7 7 8 7 5 6 6 6 6 6 7 7 7 7 6 8 8 8 7 7 7 8 11 11 12 12 13 14 11 11 12 11 9 8 8 8 7
7 7 7 7 8 8 9 8 8 8 7 6 5 5 5 5 6 6 6 6 6 6 6 6 7 6 6 7 7 12 12 11 11 10 9 10 11 10 9 9 8 9 8 8
6 6 7 7 7 7 7 7 7 7 7 6 4 4 5 5 6 6 5 5 5 5 6 5 6 5 5 5 9 10 12 11 11 9 10 10 8 8 8 8 6 6 6 5
6 6 6 7 7 7 6 6 6 7 6 5 4 5 5 4 5 5 5 5 6 4 5 5 6 5 5 7 9 10 9 9 9 9 7 8 7 7 6 6 6 5 5 5
5 6 6 6 5 5 5 5 5 4 5 4 4 6 4 5 5 5 6 5 5 4 5 3 4 6 8 9 9 9 9 8 8 7 5 6 6 6 6 6 5 5 6 6
5 5 5 5 5 5 5 5 4 5 4 4 4 4 3 4 5 6 5 4 4 3 5 4 5 5 6 8 10 9 9 8 8 7 7 6 6 6 6 5 5 6 6 5
7 6 5 5 4 4 4 4 4 4 5 4 3 3 5 3 4 6 4 4 3 3 4 3 4 7 8 7 8 8 7 7 7 7 6 6 6 6 6 5 5 6 6 6
6 5 3 3 3 2 3 3 3 4 4 3 2 2 3 3 3 5 4 3 3 4 2 4 5 7 6 5 5 6 6 6 6 6 6 7 6 8 6 4 6 6 5 5
4 4 5 4 5 4 5 5 4 3 3 3 4 3 3 4 3 4 3 5 5 2 2 4 5 7 6 4 4 5 5 5 5 4 4 4 4 4 5 5 5 4 3 4
3 3 5 5 4 3 2 1 2 2 4 3 3 2 4 3 4 4 3 3 2 4 4 4 3 4 4 3 3 4 4 4 3 4 3 2 3 3 3 4 4 3 3 3
2 3 4 4 2 3 1 0 1 2 4 3 2 2 2 3 5 2 2 2 2 4 3 2 0 3 3 3 3 3 4 4 3 2 2 3 3 3 3 3 2 2 2 1
3 3 3 3 2 3 3 3 3 4 3 2 2 3 4 2 1 2 3 3 5 4 2 1 2 2 2 2 3 2 3 3 2 2 2 2 3 3 2 -0 1 1 0 -0
Height
774 770 767 764 762 760 760 762 768 771 770 773 773 767 767 769 754 748 746 740 734 736 738 742 741 746 747 748 752 758 750 751 747 736 731 729 730 723 717 735 723 725 746 761
774 770 768 767 766 765 764 770 776 774 772 767 771 774 770 769 755 749 747 742 740 739 742 746 740 743 748 743 744 749 744 748 749 739 738 731 728 721 714 717 723 733 750 764
774 770 767 767 767 766 766 769 774 778 776 771 763 773 773 760 756 751 748 743 739 740 740 738 743 746 747 746 743 746 746 748 755 759 752 747 744 730 720 725 742 738 750 754
771 769 767 766 767 768 768 767 774 774 774 765 768 771 771 754 755 752 749 745 742 742 744 743 746 744 746 744 741 740 742 762 774 746 742 742 740 737 731 735 730 749 752 753
768 765 766 766 768 770 770 766 768 769 769 771 771 775 764 756 756 757 753 749 745 747 752 749 748 744 746 749 739 741 742 764 752 749 743 743 749 744 741 738 734 738 745 754
763 761 760 763 766 771 770 768 765 765 777 777 766 763 761 761 759 760 758 756 750 755 759 753 749 747 748 749 751 748 748 757 762 763 751 749 758 756 749 746 748 744 755 754
761 757 749 756 766 769 769 768 765 764 779 776 764 762 761 761 765 764 761 761 755 764 758 754 747 748 748 750 751 748 750 750 759 771 760 772 758 753 753 752 751 749 749 750
763 762 760 764 769 772 772 772 771 765 775 774 768 763 765 763 763 766 766 768 768 764 761 755 755 755 753 754 754 754 751 753 759 775 770 752 754 754 753 753 755 749 753 756
764 766 769 772 774 774 775 773 772 770 771 777 767 765 764 763 763 766 767 768 767 765 762 757 761 769 761 758 755 752 752 750 760 773 769 758 751 750 748 749 761 752 751 756
767 768 770 774 776 776 777 775 773 771 771 776 775 769 769 766 764 766 766 767 765 766 765 766 772 766 763 766 761 758 758 757 764 764 770 753 748 750 749 759 763 753 751 755
771 770 772 775 777 778 778 776 774 773 772 777 778 777 773 769 767 765 768 770 768 766 768 768 765 766 765 766 757 757 761 767 770 761 764 777 748 751 754 754 751 752 754 756
774 776 778 775 775 777 777 776 775 774 773 778 778 779 779 780 780 778 769 770 768 770 771 770 767 770 767 764 767 758 771 758 761 757 757 748 748 749 749 749 752 754 758 759
771 769 770 776 777 776 775 776 776 775 777 780 779 777 778 778 779 780 778 771 772 770 772 770 771 769 767 772 766 751 754 753 762 758 743 747 747 748 748 749 750 752 756 759
772 774 773 774 775 773 773 775 776 776 774 777 781 779 778 777 777 778 780 780 776 774 773 770 770 770 765 765 762 762 753 753 753 751 744 744 744 744 747 750 751 753 756 759
775 774 773 773 772 773 775 773 775 776 780 778 779 779 780 779 777 777 778 779 778 775 775 775 773 768 770 765 768 760 744 745 749 749 734 738 735 737 741 748 751 754 757 760
774 776 774 773 774 775 776 780 781 778 778 781 782 779 778 780 779 778 777 778 778 778 774 771 770 772 774 772 760 727 724 725 726 729 726 732 733 733 737 743 747 751 754 757
773 776 777 776 775 775 776 774 773 775 777 780 786 784 780 780 780 781 780 778 778 779 776 775 770 773 773 767 754 719 717 718 722 726 729 734 733 735 736 740 745 749 753 756
772 774 776 777 775 776 776 776 776 774 775 779 787 786 785 782 780 781 780 780 778 776 775 775 774 774 773 760 716 713 712 714 717 722 723 727 729 733 737 740 744 749 752 754
770 773 775 776 775 774 773 774 771 770 776 779 782 779 780 782 781 780 781 780 779 777 776 771 769 765 755 717 711 709 710 711 713 717 722 726 729 732 735 739 744 748 750 752
769 774 775 774 772 773 775 775 775 774 771 773 775 770 778 775 779 781 781 781 779 784 769 769 765 739 717 704 704 702 702 705 710 720 727 727 729 730 732 734 738 742 745 748
769 770 772 771 771 773 772 774 776 771 775 768 767 767 777 776 777 775 777 781 780 788 769 772 756 734 703 691 690 694 696 699 703 706 711 716 719 724 729 733 736 739 742 744
762 767 770 771 772 775 777 775 774 773 765 762 768 769 767 772 771 772 777 778 784 782 770 773 758 708 690 690 687 687 691 696 701 704 707 711 716 720 724 729 733 736 739 743
763 766 770 771 773 780 776 774 771 765 757 760 763 771 769 773 774 772 777 782 777 767 778 757 731 691 692 692 690 691 690 694 700 704 706 709 713 718 723 727 730 734 738 741
759 764 767 765 759 759 750 749 748 750 751 757 759 764 767 767 773 770 781 766 766 776 777 745 702 694 689 693 692 692 696 696 700 704 707 710 713 717 723 727 729 733 737 739
756 758 750 746 744 746 747 750 749 750 749 752 760 763 762 769 771 766 771 775 778 755 738 715 706 700 696 695 696 696 696 699 702 705 708 711 715 718 723 728 731 733 735 738
750 747 742 743 750 745 747 750 749 748 750 751 755 760 766 761 756 769 767 770 759 728 720 711 708 703 700 698 697 697 699 701 704 707 709 711 715 718 722 727 731 733 734 736
736 733 734 737 738 736 737 740 740 741 748 753 756 758 749 751 760 759 745 743 719 710 709 708 704 701 700 700 698 698 700 702 705 708 711 713 716 719 722 726 729 731 733 734
Wind_Speed
15 12 10 5 4 6 7 4 3 5 3 3 2 3 5 3 8 2 3 5 9 4 3 3 4 5 4 1 2 2 4 2 1 0 4 3 4 6 5 1 5 6 5 4
18 13 9 6 4 7 2 3 1 6 6 2 2 2 3 4 7 6 6 4 5 5 4 2 4 4 3 3 4 4 4 2 3 3 2 1 4 8 5 2 2 3 4 3
19 18 16 6 4 2 4 3 2 2 2 3 2 2 4 3 2 2 5 3 0 2 3 3 3 4 1 4 3 4 3 5 4 3 2 3 5 9 7 4 5 9 10 12
20 16 11 9 6 4 4 2 3 2 1 2 6 3 2 3 4 2 3 1 2 5 3 5 4 3 4 5 1 2 4 3 5 4 5 4 6 8 11 8 7 8 10 12
20 14 10 7 11 8 2 1 3 2 4 5 5 1 1 6 4 6 5 4 6 11 7 6 5 3 6 5 2 2 0 1 2 4 6 5 7 10 9 9 10 10 12 10
17 11 13 13 18 10 2 1 1 2 3 1 1 2 4 6 5 1 5 8 6 8 5 6 4 3 4 4 5 5 3 1 3 2 4 6 4 5 6 3 7 4 5 7
15 14 5 24 23 7 4 3 4 2 2 3 1 4 3 6 6 4 6 8 6 3 9 9 1 5 5 7 6 4 4 2 1 2 3 3 3 2 4 5 5 5 7 6
9 14 15 23 18 4 10 5 5 2 3 3 4 3 4 3 4 3 3 4 4 8 6 2 2 3 2 4 4 5 5 3 2 2 1 3 3 3 2 1 3 2 6 7
7 11 10 15 12 3 9 8 5 3 2 5 5 4 2 2 2 4 2 2 4 4 2 2 3 3 3 3 1 0 4 2 1 3 1 2 3 4 1 0 1 6 2 7
9 12 8 4 6 9 7 6 3 3 2 1 3 1 1 2 2 3 2 2 1 1 3 1 2 1 1 2 3 2 1 2 2 3 1 4 5 6 2 2 4 5 4 6
12 13 13 11 5 5 2 4 4 3 2 2 3 4 3 2 3 2 2 2 2 2 2 1 0 2 1 2 2 2 2 2 3 1 1 6 5 3 2 3 4 5 5 4
7 15 9 7 1 6 7 2 5 5 3 2 3 2 2 3 4 3 2 0 1 1 1 1 1 2 1 2 2 1 3 2 1 2 4 1 6 3 2 2 4 4 6 5
13 19 13 4 5 8 5 0 2 0 2 1 2 2 1 3 3 2 1 2 4 2 1 1 1 2 2 2 4 3 5 4 2 3 2 5 5 5 3 2 4 6 6 6
12 13 10 8 7 9 4 1 3 1 2 1 1 0 1 3 4 2 3 5 5 3 1 2 2 2 1 3 2 2 3 4 5 5 5 2 5 7 8 6 5 6 6 5
11 11 11 8 5 5 6 7 6 3 1 1 1 1 2 1 1 2 4 6 4 2 1 2 3 1 0 3 2 5 7 7 6 5 8 7 1 10 8 9 8 8 7 5
11 9 9 7 4 2 3 1 6 6 2 1 1 1 2 2 2 1 2 1 2 2 1 3 1 1 1 2 4 7 8 9 8 4 2 3 2 3 8 9 9 8 8 6
12 11 9 6 4 2 2 3 3 1 1 2 3 2 1 1 1 1 2 2 2 1 2 2 2 2 3 3 5 6 9 9 8 6 7 2 3 4 8 8 8 12 8 8
14 12 8 5 5 0 0 2 2 1 4 1 2 2 3 3 2 2 0 2 1 2 2 1 2 0 2 5 12 8 7 7 7 9 5 3 6 8 7 9 10 7 6 6
15 11 5 2 3 2 1 4 5 6 3 2 2 3 3 1 1 2 1 0 2 0 3 3 3 4 7 10 8 9 9 9 8 8 8 5 8 9 9 8 8 7 7 7
14 10 3 2 2 1 2 1 2 0 1 1 3 1 2 3 3 1 0 0 3 2 4 2 4 6 12 16 11 8 9 10 10 8 7 7 7 10 10 10 8 7 7 7
5 4 3 2 4 2 1 2 2 2 2 4 3 4 3 2 3 3 3 2 1 2 3 2 3 4 6 11 20 11 9 11 12 6 8 8 7 10 9 8 8 10 10 7
10 8 5 3 1 1 1 3 1 2 4 3 4 3 1 2 1 1 2 3 2 5 2 1 4 5 6 2 3 8 9 11 11 7 10 10 9 10 8 7 7 12 12 10
9 2 2 2 1 1 6 6 4 3 3 3 3 2 3 1 1 1 1 3 5 1 1 4 6 5 2 3 1 3 8 10 10 7 10 13 11 15 13 8 13 12 10 9
3 4 5 5 5 5 4 3 2 0 4 5 3 2 3 1 3 3 2 3 1 2 2 7 3 4 4 4 3 6 7 8 9 9 9 9 10 10 13 13 13 12 9 8
3 4 6 7 3 1 2 1 2 1 4 5 3 2 3 2 2 3 2 1 4 6 5 3 3 5 1 3 3 5 7 7 7 7 9 9 13 12 12 10 9 8 7 6
2 5 3 2 1 2 2 2 2 3 4 2 2 3 3 5 4 3 8 5 7 4 3 3 4 5 3 3 4 5 5 6 6 8 12 14 13 12 12 11 8 6 6 5
5 3 4 2 1 3 3 4 4 8 4 3 3 6 10 2 3 4 5 6 4 3 4 2 3 4 4 3 3 5 6 6 8 10 13 12 15 15 12 6 7 6 4 4
Wind_Direction
352 351 4 354 4 33 54 42 72 360 4 45 12 11 350 335 321 91 324 319 43 91 146 41 35 71 62 107 85 274 202 326 307 91 167 266 280 300 317 24 347 59 94 60
338 334 327 330 335 13 24 72 46 9 6 65 70 320 353 322 341 42 16 13 34 346 55 53 60 84 11 322 326 359 345 15 319 146 178 270 323 360 338 353 21 332 90 116
327 320 306 280 278 41 21 129 93 23 336 259 106 32 5 354 57 15 4 327 339 270 61 18 119 102 139 294 11 295 284 24 23 88 140 271 343 7 14 38 55 77 98 122
325 320 323 244 220 180 6 358 101 195 186 91 97 83 277 53 50 31 327 283 1 338 95 89 51 54 190 192 263 297 43 38 16 69 64 29 22 30 20 50 86 98 130 120
324 307 283 249 204 199 285 130 150 178 89 79 89 24 210 63 54 18 22 24 25 49 44 360 85 349 10 41 347 54 58 154 271 54 26 66 59 26 22 11 73 99 110 100
331 299 269 230 188 164 245 279 349 106 43 333 239 126 34 70 345 83 26 341 342 53 7 354 33 63 70 70 12 12 28 51 8 355 3 333 25 5 45 18 29 76 129 133
351 349 342 174 176 151 17 318 312 163 109 212 220 126 53 80 40 13 41 9 19 354 325 306 105 80 70 54 27 24 338 103 37 287 335 34 185 63 346 44 44 63 72 89
24 33 102 145 137 126 10 360 339 8 119 246 288 148 117 150 111 57 30 21 340 333 300 277 243 204 209 92 46 6 7 320 42 65 9 179 165 184 180 244 177 191 130 103
115 97 109 159 175 278 341 325 333 297 146 202 314 187 190 181 106 146 84 97 271 324 282 325 352 41 323 355 205 17 307 280 59 28 42 258 126 128 87 31 270 143 120 139
141 129 125 126 251 287 271 293 330 287 123 81 333 253 243 356 298 79 137 177 261 161 324 6 11 55 165 285 301 19 293 344 229 257 295 308 136 143 186 129 204 137 162 133
165 155 131 121 40 17 270 315 332 340 50 94 343 5 332 323 287 176 133 86 250 297 335 3 50 308 41 320 193 293 233 188 205 229 193 266 125 59 165 185 91 127 106 105
177 165 153 159 354 343 349 314 51 36 48 91 95 106 75 33 356 327 10 167 347 356 64 275 319 246 180 306 286 8 293 203 249 207 219 194 191 83 110 70 141 150 122 120
171 170 158 101 31 9 352 193 41 333 138 82 216 142 180 10 327 309 323 53 356 23 111 327 315 265 100 247 243 231 222 156 220 26 295 177 219 143 153 197 142 134 135 140
173 177 165 131 61 41 35 97 14 312 299 168 151 68 194 270 331 263 259 311 301 284 315 264 236 235 134 262 236 212 197 109 211 247 256 26 243 204 183 175 117 115 109 125
181 176 158 157 142 78 44 72 56 39 354 205 126 19 215 354 353 245 251 266 284 256 253 233 237 121 82 236 359 241 181 186 185 215 199 178 223 193 169 160 173 159 143 133
196 200 191 190 157 67 59 7 25 41 39 29 304 142 153 358 353 155 188 271 290 287 246 242 161 109 176 262 245 241 208 201 195 208 108 118 111 179 158 157 167 162 160 168
203 216 212 205 220 182 207 185 173 32 45 91 332 315 155 191 262 249 248 214 252 247 272 256 215 199 185 249 239 227 219 201 196 133 114 99 185 177 150 144 147 141 140 148
196 192 204 244 282 134 290 245 235 129 96 40 130 265 326 186 218 216 67 267 230 234 258 342 222 84 226 254 243 235 217 182 176 167 171 148 157 137 143 133 131 151 171 171
200 194 184 196 230 235 207 204 177 168 148 174 172 178 208 175 348 22 341 359 264 275 240 226 153 210 224 234 217 216 194 185 184 164 149 166 158 160 154 151 162 169 187 183
179 147 175 230 186 165 142 239 204 181 178 102 202 160 186 156 152 228 306 266 258 262 236 99 229 251 249 255 228 227 196 174 154 143 169 177 185 175 174 181 175 177 182 181
170 176 199 203 148 163 217 249 211 152 258 186 215 171 150 250 142 184 195 207 233 274 251 182 264 270 243 235 234 211 189 174 181 168 176 186 169 170 168 177 178 182 183 181
176 150 130 138 169 38 158 211 346 231 231 165 141 191 140 165 183 182 200 184 66 245 146 251 268 252 274 228 237 207 169 166 168 163 165 167 168 170 163 163 170 176 185 182
131 101 77 122 177 173 198 192 235 214 180 170 151 139 138 91 263 154 147 179 220 69 260 237 237 254 247 221 214 138 144 150 153 156 150 147 137 157 156 152 174 175 175 187
127 154 213 205 194 228 198 203 166 176 106 132 138 103 144 164 141 167 177 238 79 266 248 238 266 303 281 178 182 143 166 151 145 149 142 137 137 135 151 165 164 164 175 190
157 165 220 217 219 186 117 162 114 295 141 133 103 74 134 173 210 185 66 293 259 222 233 241 292 318 259 170 183 171 157 148 148 151 146 144 143 141 142 156 162 170 179 199
177 216 196 195 347 216 167 172 163 186 149 89 62 141 145 221 189 157 206 175 226 253 232 273 318 314 276 209 183 176 159 148 145 148 146 145 145 147 150 150 162 174 191 211
215 197 204 178 231 214 169 164 184 161 144 183 152 181 206 106 159 225 198 208 234 251 264 259 274 285 270 228 185 161 153 137 138 138 144 133 137 137 137 143 164 166 189 233